Year,Month,Day,Hour,Minute,Value (Times are PST for temperature in C)
2016,08,15,00,00,19.00
2016,08,15,00,01,19.00
2016,08,15,00,02,18.90
2016,08,15,00,03,18.90
2016,08,15,00,04,18.90
2016,08,15,00,05,18.90
2016,08,15,00,06,18.90
2016,08,15,00,07,18.80
2016,08,15,00,08,18.80
2016,08,15,00,09,18.70
2016,08,15,00,10,18.60
2016,08,15,00,11,18.50
2016,08,15,00,12,18.50
2016,08,15,00,13,18.30
2016,08,15,00,14,18.20
2016,08,15,00,15,18.20
2016,08,15,00,16,18.10
2016,08,15,00,17,18.00
2016,08,15,00,18,18.00
2016,08,15,00,19,17.90
2016,08,15,00,20,17.90
2016,08,15,00,21,17.80
2016,08,15,00,22,17.80
2016,08,15,00,23,17.80
2016,08,15,00,24,17.70
2016,08,15,00,25,17.70
2016,08,15,00,26,17.70
2016,08,15,00,27,17.70
2016,08,15,00,28,17.60
2016,08,15,00,29,17.60
2016,08,15,00,30,17.60
2016,08,15,00,31,17.60
2016,08,15,00,32,17.60
2016,08,15,00,33,17.50
2016,08,15,00,34,17.50
2016,08,15,00,35,17.50
2016,08,15,00,36,17.50
2016,08,15,00,37,17.40
2016,08,15,00,38,17.40
2016,08,15,00,39,17.40
2016,08,15,00,40,17.40
2016,08,15,00,41,17.40
2016,08,15,00,42,17.40
2016,08,15,00,43,17.30
2016,08,15,00,44,17.30
2016,08,15,00,45,17.30
2016,08,15,00,46,17.30
2016,08,15,00,47,17.30
2016,08,15,00,48,17.30
2016,08,15,00,49,17.30
2016,08,15,00,50,17.30
2016,08,15,00,51,17.30
2016,08,15,00,52,17.30
2016,08,15,00,53,17.30
2016,08,15,00,54,17.20
2016,08,15,00,55,17.20
2016,08,15,00,56,17.20
2016,08,15,00,57,17.20
2016,08,15,00,58,17.20
2016,08,15,00,59,17.20
2016,08,15,01,00,17.10
2016,08,15,01,01,17.10
2016,08,15,01,02,17.10
2016,08,15,01,03,17.10
2016,08,15,01,04,17.10
2016,08,15,01,05,17.10
2016,08,15,01,06,17.10
2016,08,15,01,07,17.10
2016,08,15,01,08,17.10
2016,08,15,01,09,17.00
2016,08,15,01,10,17.00
2016,08,15,01,11,17.00
2016,08,15,01,12,17.00
2016,08,15,01,13,17.00
2016,08,15,01,14,17.00
2016,08,15,01,15,16.90
2016,08,15,01,16,16.90
2016,08,15,01,17,16.90
2016,08,15,01,18,16.90
2016,08,15,01,19,16.90
2016,08,15,01,20,16.80
2016,08,15,01,21,16.80
2016,08,15,01,22,16.80
2016,08,15,01,23,16.80
2016,08,15,01,24,16.80
2016,08,15,01,25,16.80
2016,08,15,01,26,16.70
2016,08,15,01,27,16.70
2016,08,15,01,28,16.70
2016,08,15,01,29,16.70
2016,08,15,01,30,16.70
2016,08,15,01,31,16.70
2016,08,15,01,32,16.70
2016,08,15,01,33,16.70
2016,08,15,01,34,16.60
2016,08,15,01,35,16.60
2016,08,15,01,36,16.60
2016,08,15,01,37,16.60
2016,08,15,01,38,16.60
2016,08,15,01,39,16.50
2016,08,15,01,40,16.50
2016,08,15,01,41,16.50
2016,08,15,01,42,16.50
2016,08,15,01,43,16.50
2016,08,15,01,44,16.40
2016,08,15,01,45,16.40
2016,08,15,01,46,16.40
2016,08,15,01,47,16.40
2016,08,15,01,48,16.40
2016,08,15,01,49,16.40
2016,08,15,01,50,16.40
2016,08,15,01,51,16.40
2016,08,15,01,52,16.40
2016,08,15,01,53,16.40
2016,08,15,01,54,16.40
2016,08,15,01,55,16.40
2016,08,15,01,56,16.40
2016,08,15,01,57,16.40
2016,08,15,01,58,16.40
2016,08,15,01,59,16.40
2016,08,15,02,00,16.40
2016,08,15,02,01,16.40
2016,08,15,02,02,16.40
2016,08,15,02,03,16.40
2016,08,15,02,04,16.40
2016,08,15,02,05,16.40
2016,08,15,02,06,16.40
2016,08,15,02,07,16.30
2016,08,15,02,08,16.30
2016,08,15,02,09,16.30
2016,08,15,02,10,16.30
2016,08,15,02,11,16.30
2016,08,15,02,12,16.30
2016,08,15,02,13,16.30
2016,08,15,02,14,16.20
2016,08,15,02,15,16.20
2016,08,15,02,16,16.20
2016,08,15,02,17,16.20
2016,08,15,02,18,16.20
2016,08,15,02,19,16.20
2016,08,15,02,20,16.20
2016,08,15,02,21,16.20
2016,08,15,02,22,16.20
2016,08,15,02,23,16.20
2016,08,15,02,24,16.20
2016,08,15,02,25,16.20
2016,08,15,02,26,16.20
2016,08,15,02,27,16.20
2016,08,15,02,28,16.20
2016,08,15,02,29,16.20
2016,08,15,02,30,16.20
2016,08,15,02,31,16.20
2016,08,15,02,32,16.20
2016,08,15,02,33,16.20
2016,08,15,02,34,16.20
2016,08,15,02,35,16.20
2016,08,15,02,36,16.20
2016,08,15,02,37,16.20
2016,08,15,02,38,16.20
2016,08,15,02,39,16.20
2016,08,15,02,40,16.20
2016,08,15,02,41,16.20
2016,08,15,02,42,16.30
2016,08,15,02,43,16.30
2016,08,15,02,44,16.40
2016,08,15,02,45,16.50
2016,08,15,02,46,16.60
2016,08,15,02,47,16.70
2016,08,15,02,48,16.70
2016,08,15,02,49,16.80
2016,08,15,02,50,16.80
2016,08,15,02,51,16.80
2016,08,15,02,52,16.80
2016,08,15,02,53,16.80
2016,08,15,02,54,16.70
2016,08,15,02,55,16.70
2016,08,15,02,56,16.70
2016,08,15,02,57,16.60
2016,08,15,02,58,16.60
2016,08,15,02,59,16.60
2016,08,15,03,00,16.50
2016,08,15,03,01,16.50
2016,08,15,03,02,16.50
2016,08,15,03,04,16.50
2016,08,15,03,05,16.50
2016,08,15,03,06,16.50
2016,08,15,03,07,16.60
2016,08,15,03,08,16.60
2016,08,15,03,09,16.50
2016,08,15,03,10,16.50
2016,08,15,03,11,16.40
2016,08,15,03,12,16.40
2016,08,15,03,13,16.30
2016,08,15,03,14,16.30
2016,08,15,03,15,16.20
2016,08,15,03,16,16.20
2016,08,15,03,17,16.20
2016,08,15,03,18,16.20
2016,08,15,03,19,16.10
2016,08,15,03,20,16.10
2016,08,15,03,21,16.00
2016,08,15,03,22,16.00
2016,08,15,03,23,16.00
2016,08,15,03,24,15.90
2016,08,15,03,25,15.90
2016,08,15,03,26,15.90
2016,08,15,03,27,15.80
2016,08,15,03,28,15.80
2016,08,15,03,29,15.80
2016,08,15,03,30,15.80
2016,08,15,03,31,15.80
2016,08,15,03,32,15.80
2016,08,15,03,33,15.70
2016,08,15,03,34,15.70
2016,08,15,03,35,15.70
2016,08,15,03,36,15.70
2016,08,15,03,37,15.70
2016,08,15,03,38,15.70
2016,08,15,03,39,15.70
2016,08,15,03,40,15.70
2016,08,15,03,41,15.80
2016,08,15,03,42,15.80
2016,08,15,03,43,15.80
2016,08,15,03,44,15.90
2016,08,15,03,45,15.90
2016,08,15,03,46,15.90
2016,08,15,03,47,15.90
2016,08,15,03,48,16.00
2016,08,15,03,49,16.00
2016,08,15,03,50,16.10
2016,08,15,03,51,16.10
2016,08,15,03,52,16.10
2016,08,15,03,53,16.10
2016,08,15,03,54,16.00
2016,08,15,03,55,16.00
2016,08,15,03,56,16.00
2016,08,15,03,57,16.00
2016,08,15,03,58,16.00
2016,08,15,03,59,16.10
2016,08,15,04,00,16.10
2016,08,15,04,01,16.10
2016,08,15,04,02,16.10
2016,08,15,04,03,16.10
2016,08,15,04,04,16.20
2016,08,15,04,05,16.20
2016,08,15,04,06,16.20
2016,08,15,04,07,16.20
2016,08,15,04,08,16.20
2016,08,15,04,09,16.20
2016,08,15,04,10,16.20
2016,08,15,04,11,16.20
2016,08,15,04,12,16.20
2016,08,15,04,13,16.20
2016,08,15,04,14,16.20
2016,08,15,04,15,16.20
2016,08,15,04,16,16.20
2016,08,15,04,17,16.30
2016,08,15,04,18,16.30
2016,08,15,04,19,16.30
2016,08,15,04,20,16.30
2016,08,15,04,21,16.30
2016,08,15,04,22,16.30
2016,08,15,04,23,16.40
2016,08,15,04,24,16.40
2016,08,15,04,25,16.40
2016,08,15,04,26,16.50
2016,08,15,04,27,16.50
2016,08,15,04,28,16.50
2016,08,15,04,29,16.50
2016,08,15,04,30,16.60
2016,08,15,04,31,16.60
2016,08,15,04,32,16.60
2016,08,15,04,33,16.60
2016,08,15,04,34,16.60
2016,08,15,04,35,16.60
2016,08,15,04,36,16.60
2016,08,15,04,37,16.60
2016,08,15,04,38,16.60
2016,08,15,04,39,16.60
2016,08,15,04,40,16.60
2016,08,15,04,41,16.60
2016,08,15,04,42,16.60
2016,08,15,04,43,16.60
2016,08,15,04,44,16.60
2016,08,15,04,45,16.50
2016,08,15,04,46,16.50
2016,08,15,04,47,16.50
2016,08,15,04,48,16.50
2016,08,15,04,49,16.50
2016,08,15,04,50,16.40
2016,08,15,04,51,16.40
2016,08,15,04,52,16.40
2016,08,15,04,53,16.40
2016,08,15,04,54,16.40
2016,08,15,04,55,16.40
2016,08,15,04,56,16.30
2016,08,15,04,57,16.30
2016,08,15,04,58,16.30
2016,08,15,04,59,16.30
2016,08,15,05,00,16.30
2016,08,15,05,01,16.30
2016,08,15,05,02,16.30
2016,08,15,05,03,16.20
2016,08,15,05,04,16.20
2016,08,15,05,05,16.20
2016,08,15,05,06,16.20
2016,08,15,05,07,16.20
2016,08,15,05,08,16.20
2016,08,15,05,09,16.20
2016,08,15,05,10,16.20
2016,08,15,05,11,16.20
2016,08,15,05,12,16.20
2016,08,15,05,13,16.20
2016,08,15,05,14,16.10
2016,08,15,05,15,16.10
2016,08,15,05,16,16.10
2016,08,15,05,17,16.10
2016,08,15,05,18,16.10
2016,08,15,05,19,16.10
2016,08,15,05,20,16.10
2016,08,15,05,21,16.10
2016,08,15,05,22,16.10
2016,08,15,05,23,16.10
2016,08,15,05,24,16.10
2016,08,15,05,25,16.10
2016,08,15,05,26,16.10
2016,08,15,05,27,16.10
2016,08,15,05,28,16.10
2016,08,15,05,29,16.10
2016,08,15,05,30,16.10
2016,08,15,05,31,16.00
2016,08,15,05,32,16.00
2016,08,15,05,33,16.00
2016,08,15,05,34,16.00
2016,08,15,05,35,16.00
2016,08,15,05,36,15.90
2016,08,15,05,37,15.90
2016,08,15,05,38,15.90
2016,08,15,05,39,15.90
2016,08,15,05,40,15.90
2016,08,15,05,41,15.90
2016,08,15,05,42,15.90
2016,08,15,05,43,15.90
2016,08,15,05,44,15.90
2016,08,15,05,45,15.90
2016,08,15,05,46,15.90
2016,08,15,05,47,15.90
2016,08,15,05,48,15.90
2016,08,15,05,49,15.90
2016,08,15,05,50,15.90
2016,08,15,05,51,15.90
2016,08,15,05,52,15.90
2016,08,15,05,53,15.80
2016,08,15,05,54,15.80
2016,08,15,05,55,15.80
2016,08,15,05,56,15.80
2016,08,15,05,57,15.80
2016,08,15,05,58,15.80
2016,08,15,05,59,15.80
2016,08,15,06,00,15.80
2016,08,15,06,01,15.80
2016,08,15,06,02,15.80
2016,08,15,06,03,15.80
2016,08,15,06,04,15.80
2016,08,15,06,05,15.70
2016,08,15,06,06,15.70
2016,08,15,06,07,15.70
2016,08,15,06,08,15.70
2016,08,15,06,09,15.70
2016,08,15,06,10,15.70
2016,08,15,06,11,15.70
2016,08,15,06,12,15.60
2016,08,15,06,13,15.60
2016,08,15,06,14,15.60
2016,08,15,06,15,15.60
2016,08,15,06,16,15.60
2016,08,15,06,17,15.60
2016,08,15,06,18,15.60
2016,08,15,06,19,15.60
2016,08,15,06,20,15.60
2016,08,15,06,21,15.60
2016,08,15,06,22,15.60
2016,08,15,06,23,15.50
2016,08,15,06,24,15.50
2016,08,15,06,25,15.50
2016,08,15,06,26,15.50
2016,08,15,06,27,15.50
2016,08,15,06,28,15.50
2016,08,15,06,29,15.50
2016,08,15,06,30,15.50
2016,08,15,06,31,15.50
2016,08,15,06,32,15.50
2016,08,15,06,33,15.50
2016,08,15,06,34,15.50
2016,08,15,06,35,15.50
2016,08,15,06,36,15.50
2016,08,15,06,37,15.60
2016,08,15,06,38,15.60
2016,08,15,06,39,15.60
2016,08,15,06,40,15.60
2016,08,15,06,41,15.60
2016,08,15,06,42,15.60
2016,08,15,06,43,15.60
2016,08,15,06,44,15.60
2016,08,15,06,45,15.60
2016,08,15,06,46,15.60
2016,08,15,06,47,15.70
2016,08,15,06,48,15.70
2016,08,15,06,49,15.70
2016,08,15,06,50,15.70
2016,08,15,06,51,15.70
2016,08,15,06,52,15.70
2016,08,15,06,53,15.70
2016,08,15,06,54,15.70
2016,08,15,06,55,15.70
2016,08,15,06,56,15.70
2016,08,15,06,57,15.80
2016,08,15,06,58,15.80
2016,08,15,06,59,15.80
2016,08,15,07,00,15.80
2016,08,15,07,01,15.80
2016,08,15,07,02,15.80
2016,08,15,07,03,15.80
2016,08,15,07,04,15.90
2016,08,15,07,05,15.90
2016,08,15,07,06,15.90
2016,08,15,07,07,15.90
2016,08,15,07,08,15.90
2016,08,15,07,09,16.00
2016,08,15,07,10,16.00
2016,08,15,07,11,16.00
2016,08,15,07,12,16.00
2016,08,15,07,13,16.10
2016,08,15,07,14,16.10
2016,08,15,07,15,16.10
2016,08,15,07,16,16.10
2016,08,15,07,17,16.20
2016,08,15,07,18,16.20
2016,08,15,07,19,16.20
2016,08,15,07,20,16.20
2016,08,15,07,21,16.30
2016,08,15,07,22,16.30
2016,08,15,07,23,16.30
2016,08,15,07,24,16.30
2016,08,15,07,25,16.40
2016,08,15,07,26,16.40
2016,08,15,07,27,16.40
2016,08,15,07,28,16.50
2016,08,15,07,29,16.50
2016,08,15,07,30,16.60
2016,08,15,07,31,16.60
2016,08,15,07,32,16.60
2016,08,15,07,33,16.60
2016,08,15,07,34,16.70
2016,08,15,07,35,16.70
2016,08,15,07,36,16.80
2016,08,15,07,37,16.80
2016,08,15,07,38,16.80
2016,08,15,07,39,16.80
2016,08,15,07,40,16.90
2016,08,15,07,41,16.90
2016,08,15,07,42,16.90
2016,08,15,07,43,17.00
2016,08,15,07,44,17.00
2016,08,15,07,45,17.10
2016,08,15,07,46,17.10
2016,08,15,07,47,17.10
2016,08,15,07,48,17.10
2016,08,15,07,49,17.10
2016,08,15,07,50,17.20
2016,08,15,07,51,17.20
2016,08,15,07,52,17.20
2016,08,15,07,53,17.20
2016,08,15,07,54,17.20
2016,08,15,07,55,17.30
2016,08,15,07,56,17.30
2016,08,15,07,57,17.30
2016,08,15,07,58,17.40
2016,08,15,07,59,17.40
2016,08,15,08,00,17.40
2016,08,15,08,01,17.50
2016,08,15,08,02,17.50
2016,08,15,08,03,17.60
2016,08,15,08,04,17.60
2016,08,15,08,05,17.60
2016,08,15,08,06,17.60
2016,08,15,08,07,17.60
2016,08,15,08,08,17.60
2016,08,15,08,09,17.70
2016,08,15,08,10,17.70
2016,08,15,08,11,17.70
2016,08,15,08,12,17.70
2016,08,15,08,13,17.70
2016,08,15,08,14,17.70
2016,08,15,08,15,17.80
2016,08,15,08,16,17.80
2016,08,15,08,17,17.80
2016,08,15,08,18,17.90
2016,08,15,08,19,17.90
2016,08,15,08,20,17.90
2016,08,15,08,21,17.90
2016,08,15,08,22,18.00
2016,08,15,08,23,18.00
2016,08,15,08,24,18.00
2016,08,15,08,25,18.10
2016,08,15,08,26,18.10
2016,08,15,08,27,18.10
2016,08,15,08,28,18.10
2016,08,15,08,29,18.10
2016,08,15,08,30,18.10
2016,08,15,08,31,18.10
2016,08,15,08,32,18.10
2016,08,15,08,33,18.10
2016,08,15,08,34,18.10
2016,08,15,08,35,18.10
2016,08,15,08,36,18.00
2016,08,15,08,37,18.00
2016,08,15,08,38,18.00
2016,08,15,08,39,17.90
2016,08,15,08,40,17.90
2016,08,15,08,41,17.80
2016,08,15,08,42,17.80
2016,08,15,08,43,17.70
2016,08,15,08,44,17.60
2016,08,15,08,45,17.60
2016,08,15,08,46,17.50
2016,08,15,08,47,17.40
2016,08,15,08,48,17.30
2016,08,15,08,49,17.30
2016,08,15,08,50,17.20
2016,08,15,08,51,17.10
2016,08,15,08,52,17.10
2016,08,15,08,53,17.00
2016,08,15,08,54,17.00
2016,08,15,08,55,17.00
2016,08,15,08,56,17.00
2016,08,15,08,57,16.90
2016,08,15,08,58,16.90
2016,08,15,08,59,16.90
2016,08,15,09,00,16.90
2016,08,15,09,01,16.90
2016,08,15,09,02,16.90
2016,08,15,09,03,16.90
2016,08,15,09,04,17.00
2016,08,15,09,05,17.00
2016,08,15,09,06,17.00
2016,08,15,09,07,17.00
2016,08,15,09,08,17.00
2016,08,15,09,09,17.10
2016,08,15,09,10,17.10
2016,08,15,09,11,17.10
2016,08,15,09,12,17.10
2016,08,15,09,13,17.20
2016,08,15,09,14,17.20
2016,08,15,09,15,17.30
2016,08,15,09,16,17.40
2016,08,15,09,17,17.40
2016,08,15,09,18,17.50
2016,08,15,09,19,17.60
2016,08,15,09,20,17.60
2016,08,15,09,21,17.60
2016,08,15,09,22,17.60
2016,08,15,09,23,17.60
2016,08,15,09,24,17.60
2016,08,15,09,25,17.60
2016,08,15,09,26,17.50
2016,08,15,09,27,17.50
2016,08,15,09,28,17.40
2016,08,15,09,29,17.40
2016,08,15,09,30,17.40
2016,08,15,09,31,17.30
2016,08,15,09,32,17.30
2016,08,15,09,33,17.20
2016,08,15,09,34,17.20
2016,08,15,09,35,17.20
2016,08,15,09,36,17.10
2016,08,15,09,37,17.10
2016,08,15,09,38,17.10
2016,08,15,09,39,17.10
2016,08,15,09,40,17.10
2016,08,15,09,41,17.20
2016,08,15,09,42,17.20
2016,08,15,09,43,17.30
2016,08,15,09,44,17.40
2016,08,15,09,45,17.50
2016,08,15,09,46,17.50
2016,08,15,09,47,17.60
2016,08,15,09,48,17.70
2016,08,15,09,49,17.80
2016,08,15,09,50,17.80
2016,08,15,09,51,17.80
2016,08,15,09,52,17.90
2016,08,15,09,53,18.00
2016,08,15,09,54,18.00
2016,08,15,09,55,18.00
2016,08,15,09,56,18.10
2016,08,15,09,57,18.10
2016,08,15,09,58,18.10
2016,08,15,09,59,18.10
2016,08,15,10,00,18.20
2016,08,15,10,01,18.20
2016,08,15,10,02,18.30
2016,08,15,10,03,18.30
2016,08,15,10,04,18.30
2016,08,15,10,05,18.40
2016,08,15,10,06,18.40
2016,08,15,10,07,18.40
2016,08,15,10,08,18.40
2016,08,15,10,09,18.40
2016,08,15,10,10,18.40
2016,08,15,10,11,18.40
2016,08,15,10,12,18.40
2016,08,15,10,13,18.40
2016,08,15,10,14,18.40
2016,08,15,10,15,18.30
2016,08,15,10,16,18.30
2016,08,15,10,17,18.30
2016,08,15,10,18,18.30
2016,08,15,10,19,18.30
2016,08,15,10,20,18.30
2016,08,15,10,21,18.30
2016,08,15,10,22,18.30
2016,08,15,10,23,18.40
2016,08,15,10,24,18.40
2016,08,15,10,25,18.40
2016,08,15,10,26,18.40
2016,08,15,10,27,18.40
2016,08,15,10,28,18.40
2016,08,15,10,29,18.50
2016,08,15,10,30,18.50
2016,08,15,10,31,18.50
2016,08,15,10,32,18.60
2016,08,15,10,33,18.60
2016,08,15,10,34,18.60
2016,08,15,10,35,18.70
2016,08,15,10,36,18.70
2016,08,15,10,37,18.70
2016,08,15,10,38,18.80
2016,08,15,10,39,18.90
2016,08,15,10,40,18.90
2016,08,15,10,41,19.00
2016,08,15,10,42,19.00
2016,08,15,10,43,19.10
2016,08,15,10,44,19.20
2016,08,15,10,45,19.20
2016,08,15,10,46,19.20
2016,08,15,10,47,19.30
2016,08,15,10,48,19.30
2016,08,15,10,49,19.30
2016,08,15,10,50,19.30
2016,08,15,10,51,19.30
2016,08,15,10,52,19.40
2016,08,15,10,53,19.40
2016,08,15,10,54,19.40
2016,08,15,10,55,19.40
2016,08,15,10,56,19.50
2016,08,15,10,57,19.50
2016,08,15,10,58,19.50
2016,08,15,10,59,19.60
2016,08,15,11,00,19.60
2016,08,15,11,01,19.60
2016,08,15,11,02,19.60
2016,08,15,11,03,19.60
2016,08,15,11,04,19.50
2016,08,15,11,05,19.40
2016,08,15,11,06,19.40
2016,08,15,11,07,19.40
2016,08,15,11,08,19.40
2016,08,15,11,09,19.40
2016,08,15,11,10,19.40
2016,08,15,11,11,19.40
2016,08,15,11,12,19.30
2016,08,15,11,13,19.20
2016,08,15,11,14,19.20
2016,08,15,11,15,19.10
2016,08,15,11,16,19.10
2016,08,15,11,17,19.00
2016,08,15,11,18,19.00
2016,08,15,11,19,19.00
2016,08,15,11,20,19.00
2016,08,15,11,21,19.00
2016,08,15,11,22,19.10
2016,08,15,11,23,19.10
2016,08,15,11,24,19.10
2016,08,15,11,25,19.20
2016,08,15,11,26,19.20
2016,08,15,11,27,19.30
2016,08,15,11,28,19.40
2016,08,15,11,29,19.40
2016,08,15,11,30,19.40
2016,08,15,11,31,19.50
2016,08,15,11,32,19.50
2016,08,15,11,33,19.60
2016,08,15,11,34,19.60
2016,08,15,11,35,19.60
2016,08,15,11,36,19.70
2016,08,15,11,37,19.70
2016,08,15,11,38,19.70
2016,08,15,11,39,19.80
2016,08,15,11,40,19.80
2016,08,15,11,41,19.80
2016,08,15,11,42,19.80
2016,08,15,11,43,19.80
2016,08,15,11,44,19.80
2016,08,15,11,45,19.80
2016,08,15,11,46,19.90
2016,08,15,11,47,19.90
2016,08,15,11,48,19.90
2016,08,15,11,49,20.00
2016,08,15,11,50,20.00
2016,08,15,11,51,20.10
2016,08,15,11,52,20.10
2016,08,15,11,53,20.20
2016,08,15,11,54,20.20
2016,08,15,11,55,20.20
2016,08,15,11,56,20.30
2016,08,15,11,57,20.30
2016,08,15,11,58,20.40
2016,08,15,11,59,20.50
2016,08,15,12,00,20.50
2016,08,15,12,01,20.60
2016,08,15,12,02,20.60
2016,08,15,12,03,20.60
2016,08,15,12,04,20.60
2016,08,15,12,05,20.60
2016,08,15,12,06,20.60
2016,08,15,12,07,20.70
2016,08,15,12,08,20.80
2016,08,15,12,09,20.90
2016,08,15,12,10,21.00
2016,08,15,12,11,21.10
2016,08,15,12,12,21.10
2016,08,15,12,13,21.20
2016,08,15,12,14,21.20
2016,08,15,12,15,21.20
2016,08,15,12,16,21.20
2016,08,15,12,17,21.10
2016,08,15,12,18,21.10
2016,08,15,12,19,21.20
2016,08,15,12,20,21.20
2016,08,15,12,21,21.20
2016,08,15,12,22,21.20
2016,08,15,12,23,21.20
2016,08,15,12,24,21.20
2016,08,15,12,25,21.20
2016,08,15,12,26,21.20
2016,08,15,12,27,21.20
2016,08,15,12,28,21.30
2016,08,15,12,29,21.30
2016,08,15,12,30,21.40
2016,08,15,12,31,21.40
2016,08,15,12,32,21.30
2016,08,15,12,33,21.30
2016,08,15,12,34,21.30
2016,08,15,12,35,21.30
2016,08,15,12,36,21.30
2016,08,15,12,37,21.30
2016,08,15,12,38,21.30
2016,08,15,12,39,21.30
2016,08,15,12,40,21.30
2016,08,15,12,41,21.30
2016,08,15,12,42,21.40
2016,08,15,12,43,21.40
2016,08,15,12,44,21.40
2016,08,15,12,45,21.40
2016,08,15,12,46,21.40
2016,08,15,12,47,21.50
2016,08,15,12,48,21.50
2016,08,15,12,49,21.60
2016,08,15,12,50,21.60
2016,08,15,12,51,21.70
2016,08,15,12,52,21.80
2016,08,15,12,53,21.80
2016,08,15,12,54,21.90
2016,08,15,12,55,22.00
2016,08,15,12,56,22.00
2016,08,15,12,57,22.10
2016,08,15,12,58,22.20
2016,08,15,12,59,22.20
2016,08,15,13,00,22.20
2016,08,15,13,01,22.20
2016,08,15,13,02,22.20
2016,08,15,13,03,22.20
2016,08,15,13,04,22.20
2016,08,15,13,05,22.20
2016,08,15,13,06,22.20
2016,08,15,13,07,22.20
2016,08,15,13,08,22.20
2016,08,15,13,09,22.20
2016,08,15,13,10,22.20
2016,08,15,13,11,22.20
2016,08,15,13,12,22.20
2016,08,15,13,13,22.20
2016,08,15,13,14,22.20
2016,08,15,13,15,22.20
2016,08,15,13,16,22.20
2016,08,15,13,17,22.30
2016,08,15,13,18,22.30
2016,08,15,13,19,22.40
2016,08,15,13,20,22.50
2016,08,15,13,21,22.60
2016,08,15,13,22,22.60
2016,08,15,13,23,22.70
2016,08,15,13,24,22.80
2016,08,15,13,25,22.80
2016,08,15,13,26,22.80
2016,08,15,13,27,22.90
2016,08,15,13,28,22.90
2016,08,15,13,29,22.90
2016,08,15,13,30,22.90
2016,08,15,13,31,22.90
2016,08,15,13,32,23.00
2016,08,15,13,33,23.00
2016,08,15,13,34,22.90
2016,08,15,13,35,22.90
2016,08,15,13,36,22.90
2016,08,15,13,37,23.00
2016,08,15,13,38,23.00
2016,08,15,13,39,23.00
2016,08,15,13,40,22.90
2016,08,15,13,41,22.90
2016,08,15,13,42,22.90
2016,08,15,13,43,22.90
2016,08,15,13,44,22.90
2016,08,15,13,45,22.90
2016,08,15,13,46,23.00
2016,08,15,13,47,23.00
2016,08,15,13,48,23.10
2016,08,15,13,49,23.10
2016,08,15,13,50,23.10
2016,08,15,13,51,23.20
2016,08,15,13,52,23.20
2016,08,15,13,53,23.20
2016,08,15,13,54,23.30
2016,08,15,13,55,23.30
2016,08,15,13,56,23.30
2016,08,15,13,57,23.30
2016,08,15,13,58,23.30
2016,08,15,13,59,23.40
2016,08,15,14,00,23.40
2016,08,15,14,01,23.50
2016,08,15,14,02,23.60
2016,08,15,14,03,23.60
2016,08,15,14,04,23.70
2016,08,15,14,05,23.70
2016,08,15,14,06,23.70
2016,08,15,14,07,23.80
2016,08,15,14,08,23.70
2016,08,15,14,09,23.70
2016,08,15,14,10,23.70
2016,08,15,14,11,23.60
2016,08,15,14,12,23.60
2016,08,15,14,13,23.60
2016,08,15,14,14,23.50
2016,08,15,14,15,23.40
2016,08,15,14,16,23.40
2016,08,15,14,17,23.30
2016,08,15,14,18,23.30
2016,08,15,14,19,23.30
2016,08,15,14,20,23.30
2016,08,15,14,21,23.30
2016,08,15,14,22,23.30
2016,08,15,14,23,23.30
2016,08,15,14,24,23.40
2016,08,15,14,25,23.40
2016,08,15,14,26,23.50
2016,08,15,14,27,23.60
2016,08,15,14,28,23.70
2016,08,15,14,29,23.80
2016,08,15,14,30,23.80
2016,08,15,14,31,23.90
2016,08,15,14,32,24.00
2016,08,15,14,33,24.10
2016,08,15,14,34,24.20
2016,08,15,14,35,24.30
2016,08,15,14,36,24.30
2016,08,15,14,37,24.20
2016,08,15,14,38,24.20
2016,08,15,14,39,24.20
2016,08,15,14,40,24.10
2016,08,15,14,41,24.00
2016,08,15,14,42,24.00
2016,08,15,14,43,23.90
2016,08,15,14,44,23.80
2016,08,15,14,45,23.80
2016,08,15,14,46,23.70
2016,08,15,14,47,23.60
2016,08,15,14,48,23.60
2016,08,15,14,49,23.60
2016,08,15,14,50,23.60
2016,08,15,14,51,23.70
2016,08,15,14,52,23.70
2016,08,15,14,53,23.80
2016,08,15,14,54,23.80
2016,08,15,14,55,23.80
2016,08,15,14,56,23.90
2016,08,15,14,57,24.00
2016,08,15,14,58,24.00
2016,08,15,14,59,24.10
2016,08,15,15,00,24.10
2016,08,15,15,01,24.10
2016,08,15,15,02,24.10
2016,08,15,15,03,24.10
2016,08,15,15,04,24.10
2016,08,15,15,05,24.20
2016,08,15,15,06,24.20
2016,08,15,15,07,24.20
2016,08,15,15,08,24.20
2016,08,15,15,09,24.20
2016,08,15,15,10,24.20
2016,08,15,15,11,24.20
2016,08,15,15,12,24.10
2016,08,15,15,13,24.10
2016,08,15,15,14,24.10
2016,08,15,15,15,24.10
2016,08,15,15,16,24.10
2016,08,15,15,17,24.10
2016,08,15,15,18,24.10
2016,08,15,15,19,24.10
2016,08,15,15,20,24.20
2016,08,15,15,21,24.20
2016,08,15,15,22,24.20
2016,08,15,15,23,24.20
2016,08,15,15,24,24.20
2016,08,15,15,25,24.20
2016,08,15,15,26,24.20
2016,08,15,15,27,24.20
2016,08,15,15,28,24.20
2016,08,15,15,29,24.20
2016,08,15,15,30,24.20
2016,08,15,15,31,24.30
2016,08,15,15,32,24.30
2016,08,15,15,33,24.40
2016,08,15,15,34,24.50
2016,08,15,15,35,24.60
2016,08,15,15,36,24.70
2016,08,15,15,37,24.80
2016,08,15,15,38,24.80
2016,08,15,15,39,24.80
2016,08,15,15,40,24.80
2016,08,15,15,41,24.70
2016,08,15,15,42,24.70
2016,08,15,15,43,24.50
2016,08,15,15,44,24.40
2016,08,15,15,45,24.20
2016,08,15,15,46,24.10
2016,08,15,15,47,24.10
2016,08,15,15,48,24.00
2016,08,15,15,49,24.00
2016,08,15,15,50,24.00
2016,08,15,15,51,24.00
2016,08,15,15,52,24.00
2016,08,15,15,53,24.00
2016,08,15,15,54,24.00
2016,08,15,15,55,23.90
2016,08,15,15,56,23.80
2016,08,15,15,57,23.80
2016,08,15,15,58,23.70
2016,08,15,15,59,23.60
2016,08,15,16,00,23.40
2016,08,15,16,01,23.30
2016,08,15,16,02,23.10
2016,08,15,16,03,23.00
2016,08,15,16,04,22.80
2016,08,15,16,05,22.70
2016,08,15,16,06,22.60
2016,08,15,16,07,22.50
2016,08,15,16,08,22.50
2016,08,15,16,09,22.50
2016,08,15,16,10,22.40
2016,08,15,16,11,22.40
2016,08,15,16,12,22.40
2016,08,15,16,13,22.40
2016,08,15,16,14,22.30
2016,08,15,16,15,22.20
2016,08,15,16,16,22.10
2016,08,15,16,17,22.00
2016,08,15,16,18,21.90
2016,08,15,16,19,21.90
2016,08,15,16,20,21.80
2016,08,15,16,21,21.80
2016,08,15,16,22,21.80
2016,08,15,16,23,21.80
2016,08,15,16,24,21.80
2016,08,15,16,25,21.80
2016,08,15,16,26,21.80
2016,08,15,16,27,21.80
2016,08,15,16,28,21.90
2016,08,15,16,29,21.90
2016,08,15,16,30,21.90
2016,08,15,16,31,22.00
2016,08,15,16,32,22.00
2016,08,15,16,33,22.10
2016,08,15,16,34,22.10
2016,08,15,16,35,22.10
2016,08,15,16,36,22.10
2016,08,15,16,37,22.20
2016,08,15,16,38,22.20
2016,08,15,16,39,22.30
2016,08,15,16,40,22.30
2016,08,15,16,41,22.40
2016,08,15,16,42,22.40
2016,08,15,16,43,22.30
2016,08,15,16,44,22.30
2016,08,15,16,45,22.30
2016,08,15,16,46,22.30
2016,08,15,16,47,22.20
2016,08,15,16,48,22.20
2016,08,15,16,49,22.20
2016,08,15,16,50,22.20
2016,08,15,16,51,22.10
2016,08,15,16,52,22.10
2016,08,15,16,53,22.10
2016,08,15,16,54,22.10
2016,08,15,16,55,22.10
2016,08,15,16,56,22.20
2016,08,15,16,57,22.20
2016,08,15,16,58,22.20
2016,08,15,16,59,22.20
2016,08,15,17,00,22.20
2016,08,15,17,01,22.20
2016,08,15,17,02,22.20
2016,08,15,17,03,22.00
2016,08,15,17,04,21.90
2016,08,15,17,05,21.80
2016,08,15,17,06,21.70
2016,08,15,17,07,21.60
2016,08,15,17,08,21.60
2016,08,15,17,09,21.50
2016,08,15,17,10,21.50
2016,08,15,17,11,21.40
2016,08,15,17,12,21.40
2016,08,15,17,13,21.20
2016,08,15,17,14,21.10
2016,08,15,17,15,21.10
2016,08,15,17,16,21.10
2016,08,15,17,17,21.10
2016,08,15,17,18,21.10
2016,08,15,17,19,21.10
2016,08,15,17,20,21.20